This is the latest recevied weather packets stored in our database for station/object 4S6DRJ-13. If no packets are shown the sender has not sent any weather packets the latest 10 day(s).
| Time | Temp. | Humidity | Pressure | Rain* | Wind** | Luminosity | Snow |
|---|---|---|---|---|---|---|---|
| 1788441509 | 28.89° C | 80% | 1008.7 hPa | 0 mm | 1.79 m/s, 218° | 0 W/m² | - |
| 1788441448 | 28.89° C | 80% | 1008.7 hPa | 0 mm | 0.89 m/s, 221° | 0 W/m² | - |
| 1788441387 | 28.89° C | 80% | 1008.8 hPa | 0 mm | 0.89 m/s, 345° | 0 W/m² | - |
| 1788441326 | 28.89° C | 80% | 1008.7 hPa | 0 mm | 1.79 m/s, 210° | 0 W/m² | - |
| 1788441265 | 28.89° C | 80% | 1008.7 hPa | 0 mm | 0.45 m/s, 235° | 0 W/m² | - |
| 1788441204 | 28.89° C | 80% | 1008.9 hPa | 0 mm | 0.89 m/s, 281° | 0 W/m² | - |
| 1788441144 | 28.89° C | 80% | 1009 hPa | 0 mm | 0.89 m/s, 268° | 0 W/m² | - |
| 1788441082 | 28.89° C | 80% | 1008.7 hPa | 0 mm | 0.45 m/s, 270° | 0 W/m² | - |
| 1788441021 | 28.89° C | 80% | 1009 hPa | 0 mm | 0.89 m/s, 263° | 0 W/m² | - |
| 1788440960 | 28.89° C | 80% | 1008.8 hPa | 0 mm | 1.34 m/s, 321° | 0 W/m² | - |
| 1788440899 | 28.89° C | 80% | 1008.7 hPa | 0 mm | 0.89 m/s, 299° | 0 W/m² | - |
| 1788440838 | 28.89° C | 80% | 1008.6 hPa | 0 mm | 1.34 m/s, 304° | 0 W/m² | - |
| 1788440777 | 28.89° C | 80% | 1008.6 hPa | 0 mm | 1.34 m/s, 228° | 0 W/m² | - |
| 1788440716 | 28.89° C | 80% | 1008.6 hPa | 0 mm | 0.89 m/s, 313° | 0 W/m² | - |
| 1788440655 | 28.89° C | 80% | 1008.6 hPa | 0 mm | 0.89 m/s, 264° | 0 W/m² | - |
| 1788440594 | 28.89° C | 80% | 1008.8 hPa | 0 mm | 0.45 m/s, 261° | 0 W/m² | - |
| 1788440533 | 28.89° C | 80% | 1008.6 hPa | 0 mm | 1.34 m/s, 237° | 0 W/m² | - |
| 1788440472 | 28.89° C | 80% | 1008.7 hPa | 0 mm | 0.89 m/s, 207° | 0 W/m² | - |
| 1788440411 | 28.89° C | 80% | 1008.7 hPa | 0 mm | 0.89 m/s, 225° | 0 W/m² | - |
| 1788440350 | 28.89° C | 80% | 1008.5 hPa | 0 mm | 1.79 m/s, 237° | 0 W/m² | - |
| 1788440289 | 28.89° C | 80% | 1008.5 hPa | 0 mm | 2.24 m/s, 222° | 0 W/m² | - |
| 1788440228 | 28.89° C | 79% | 1008.5 hPa | 0 mm | 0.89 m/s, 197° | 1 W/m² | - |
| 1788440167 | 28.89° C | 79% | 1008.6 hPa | 0 mm | 0.45 m/s, 230° | 1 W/m² | - |
| 1788440107 | 28.89° C | 79% | 1008.5 hPa | 0 mm | 0.45 m/s, 302° | 1 W/m² | - |
| 1788440045 | 28.89° C | 79% | 1008.4 hPa | 0 mm | 0.89 m/s, 232° | 1 W/m² | - |
* Rain latest hour (hover to see other rain measurements)
** Current wind speed in m/s (hover to see current wind gust speed)